Weather History for Marathon, FL

Change the Weather History Date:

Wednesday, November 20, 2013

  Actual Average Record
Temperature  
Mean Temperature 79 °F 75 °F  
Max Temperature 85 °F 80 °F 98 °F (1998)
Min Temperature 73 °F 71 °F 1 °F (1998)
Degree Days  
Heating Degree Days 0 0  
Month to date heating degree days 0 0  
Since 1 July heating degree days 0 0  
Cooling Degree Days 14 10  
Month to date cooling degree days 289 228  
Year to date cooling degree days 5150 4667  
Growing Degree Days 28 (Base 50)    
Moisture  
Dew Point 71 °F    
Average Humidity 78    
Maximum Humidity 94    
Minimum Humidity 61    
Precipitation  
Precipitation 0.00 in 0.05 in 0.13 in (2005)
Month to date precipitation 2.79 2.09  
Year to date precipitation 46.30 43.42  
Snow  
Snow 0.00 in - - ()
Month to date snowfall 0.0  
Since 1 July snowfall 0.0  
Since 1 September snowfall 0.0  
Snow Depth 0.00 in    
Sea Level Pressure  
Sea Level Pressure 29.98 in    
Wind  
Wind Speed 4 mph (ENE)    
Max Wind Speed 8 mph    
Max Gust Speed 13 mph    
Visibility 10 miles    
Events      
T = Trace of Precipitation, MM = Missing Value Source: NWS Daily Summary

Daily Weather History Graph

Daily Weather History Graph

Search for Another Location

Airport:

Trip Planner

Search our weather history database for the weather conditions in past years. The results will help you decide how hot, cold, wet, or windy it might be!

Date:

Astronomy

Nov. 20, 2013 Rise Set
Actual Time 6:44 AM EST 5:35 PM EST
Civil Twilight 6:19 AM EST 5:59 PM EST
Nautical Twilight 5:52 AM EST 6:27 PM EST
Astronomical Twilight 5:24 AM EST 6:54 PM EST
Moon 8:17 PM EST (11/20) 9:07 AM EST (11/20)
Length of Visible Light 11h 40m
Length of Day
10h 51m
Waning Gibbous, 91% of the Moon is Illuminated
Nov 20
Waning Gibbous
Nov 25
Last Quarter
Dec 2
New
Dec 9
First Quarter
Dec 17
Full

Hourly Weather History & Observations

Time (EST) Temp. Heat Index Dew Point Humidity Pressure Visibility Wind Dir Wind Speed Gust Speed Precip Events Conditions
12:53 AM 75.0 °F - 70.0 °F 84% 29.93 in 10.0 mi NNE 3.5 mph - N/A   Clear
1:53 AM 75.9 °F - 72.0 °F 87% 29.92 in 10.0 mi Calm Calm - N/A   Clear
2:53 AM 73.9 °F - 70.0 °F 87% 29.92 in 10.0 mi Calm Calm - N/A   Clear
3:53 AM 73.0 °F - 71.1 °F 93% 29.93 in 10.0 mi Calm Calm - N/A   Clear
4:39 AM 75.0 °F - 72.0 °F 90% 29.94 in 10.0 mi NNE 3.5 mph - N/A   Partly Cloudy
4:53 AM 75.0 °F - 72.0 °F 90% 29.94 in 10.0 mi NNE 4.6 mph - N/A   Partly Cloudy
5:53 AM 75.9 °F - 73.0 °F 91% 29.96 in 10.0 mi NE 4.6 mph - N/A   Scattered Clouds
6:53 AM 75.9 °F - 72.0 °F 87% 29.97 in 10.0 mi NNE 4.6 mph - N/A   Clear
7:13 AM 75.9 °F - 73.0 °F 91% 29.97 in 10.0 mi NE 5.8 mph - N/A   Partly Cloudy
7:53 AM 77.0 °F - 73.0 °F 88% 29.99 in 10.0 mi ENE 6.9 mph - N/A   Clear
8:22 AM 78.1 °F - 73.0 °F 84% 30.00 in 10.0 mi NE 5.8 mph - N/A   Partly Cloudy
8:53 AM 79.0 °F - 73.9 °F 84% 30.01 in 10.0 mi ENE 6.9 mph - N/A   Partly Cloudy
9:53 AM 81.0 °F 86.2 °F 73.9 °F 79% 30.01 in 10.0 mi ENE 5.8 mph - N/A   Clear
10:53 AM 82.9 °F 87.5 °F 71.1 °F 67% 30.03 in 10.0 mi SSE 4.6 mph - N/A   Clear
11:53 AM 84.0 °F 88.4 °F 70.0 °F 63% 30.01 in 10.0 mi South 6.9 mph - N/A   Partly Cloudy
12:53 PM 84.0 °F 88.4 °F 70.0 °F 63% 29.98 in 10.0 mi SSE 5.8 mph - N/A   Clear
1:53 PM 84.0 °F 87.8 °F 69.1 °F 61% 29.96 in 10.0 mi SE 5.8 mph - N/A   Clear
2:53 PM 82.9 °F 87.0 °F 70.0 °F 65% 29.95 in 10.0 mi ESE 4.6 mph - N/A   Clear
3:53 PM 81.0 °F 84.1 °F 69.1 °F 67% 29.96 in 10.0 mi SSE 4.6 mph - N/A   Clear
4:53 PM 81.0 °F 84.1 °F 69.1 °F 67% 29.98 in 10.0 mi Calm Calm - N/A   Clear
5:53 PM 79.0 °F - 69.1 °F 72% 29.99 in 10.0 mi Calm Calm - N/A   Clear
6:53 PM 79.0 °F - 69.1 °F 72% 30.01 in 10.0 mi East 3.5 mph - N/A   Clear
7:53 PM 79.0 °F - 69.1 °F 72% 30.02 in 10.0 mi Calm Calm - N/A   Clear
8:53 PM 78.1 °F - 69.1 °F 74% 30.04 in 10.0 mi East 4.6 mph - N/A   Clear
9:53 PM 79.0 °F - 70.0 °F 74% 30.05 in 10.0 mi Variable 3.5 mph - N/A   Partly Cloudy
10:53 PM 78.1 °F - 69.1 °F 74% 30.05 in 10.0 mi East 4.6 mph - N/A   Clear
11:53 PM 79.0 °F - 69.1 °F 72% 30.04 in 10.0 mi Variable 3.5 mph - N/A   Clear